[Date Prev][Date Next][Thread Prev][Thread Next] - [Date Index][Thread Index][Author Index]
2 Line ISS Keps 8-7
- Subject: [sarex] 2 Line ISS Keps 8-7
- From: "Dave Larsen PhD" <doc@xxxxxxxxxxx>
- Date: Sat, 7 Aug 2004 05:22:59 -0700
ISS
1 25544U 98067A 04220.45959784 .00010962 00000-0 91651-4 0 3931
2 25544 51.6321 64.0623 0005941 87.6075 340.3102 15.70599685326372
----
Via the sarex mailing list at AMSAT.ORG courtesy of AMSAT-NA.
To unsubscribe, send "unsubscribe sarex" to Majordomo@amsat.org
AMSAT Home